Regional Weather Roundup
Issued by NWS

Home | Current Version | Previous Version | Graphics & Text | Print | Product List | Glossary On
Versions: 1 2 3 4 5 6 7 8 9 10 11 12 13 14 15 16 17 18 19 20 21 22 23 24 25 26 27 28 29 30 31 32 33 34 35 36 37 38 39 40 41 42 43 44 45 46 47 48 49 50
000
ASUS45 KTFX 190819
RWRMT
MONTANA HOURLY WEATHER ROUNDUP
NATIONAL WEATHER SERVICE GREAT FALLS MT
119 AM MST FRI DEC 19 2014

NOTE: "FAIR" INDICATES FEW OR NO CLOUDS BELOW 12000 FEET WITH NO
SIGNIFICANT WEATHER AND/OR OBSTRUCTIONS TO VISIBILITY.

* THESE STATIONS ARE NOT UNDER NWS QUALITY CONTROL. THEY DO NOT
   REPORT WEATHER SUCH AS PRECIPITATION OR FOG.

MTZ001>007-043-190900-
WEST OF THE DIVIDE
CITY           SKY/WX    TMP DP  RH WIND       PRES   REMARKS
KALISPELL      FOG       30  30 100 CALM      29.96F VSB 2
MISSOULA       CLOUDY    30  28  92 SE3       30.01F
BUTTE          MOCLDY    16  12  84 CALM      29.99S
MULLAN PASS    CLOUDY    30  27  89 VRB6      29.90S WCI  24
* ANACONDA     PTCLDY    30  21  69 SW7        N/A   WCI  23
* ESSEX        N/A       30  29  96 SE1        N/A
* EUREKA APT   CLOUDY    37  32  82 S9        29.95F WCI  30
* HAMILTON APT MOCLDY    30  27  89 SW2       29.98F
* LIBBY APT    CLOUDY    32  30  92 CALM      29.97F VSB 2 1/2
* LINCOLN      N/A       25  24  96 E3         N/A
* LOOKOUT PASS N/A       32  32 100 SE1        N/A
* POLSON       N/A       33  32  96 N/A        N/A
* RONAN APT    MOCLDY    32  30  92 N/A        N/A
* SEELEY LAKE  N/A       27  26  96 NE1        N/A
* THOMP F APT  CLOUDY    25  23  92 SE5        N/A   WCI  19
* YAAK HILL    N/A       34  32  92 N/A        N/A
$$

MTZ008-052>055-190900-
SOUTHWEST MONTANA
CITY           SKY/WX    TMP DP  RH WIND       PRES   REMARKS
BOZEMAN        CLOUDY    27  23  85 NE3       29.99S
DILLON         CLOUDY    27  21  78 S10       30.00F WCI  18
* W YELLOWSTON PTCLDY    25  22  88 SW4        N/A
* THREE FORKS  PTCLDY    28  28 100 N/A        N/A
* BOULDER HILL N/A       25  15  66 S7         N/A   WCI  17
* MONIDA PASS  N/A       23  23 100 SE13       N/A   WCI  11
* RAYNOLDS PAS N/A       24  10  55 S11G16     N/A   WCI  13
* WHITEHALL    N/A       32  22  67 SW9G18     N/A   WCI  24
* WISE RIVER   N/A       22  19  88 NE3G10     N/A
$$

MTZ009>010-012-014-046-048-049-054-190900-
EAST SLOPES AND CENTRAL MONTANA
CITY           SKY/WX    TMP DP  RH WIND       PRES   REMARKS
CUT BANK       CLEAR     34  25  70 W17       29.86S WCI  23
GREAT FALLS    CLEAR     30  25  82 SW13      29.89S WCI  20
HELENA         MOCLDY    23  19  85 CALM      29.98R
MALMSTROM AFB  PTCLDY    34  27  76 SW12      29.91F WCI  25
* CONRAD       CLEAR     21  18  88 S5         N/A   WCI  14
* DEARBORN     N/A       34  25  70 S9G14      N/A   WCI  27
* EAST GLACIER N/A       34  24  67 W18G35     N/A   WCI  23
* MONARCH      N/A       32  17  54 SW13       N/A   WCI  22
* PENDROY      N/A       26  16  66 W1         N/A
* SWEET GRASS  N/A       31  23  72 W14        N/A   WCI  21
* WHITE SULPH  N/A       31  21  66 S13G20     N/A   WCI  21
$$

MTZ011-013-016-021-035-040-045-047-050-051-190900-
NORTH CENTRAL MONTANA
CITY           SKY/WX    TMP DP  RH WIND       PRES   REMARKS
HAVRE          CLOUDY    30  25  82 SW7       29.89S WCI  23
LEWISTOWN      PTCLDY    30  21  69 SW13      29.91F WCI  20
* N BAR RANCH  CLEAR     27  19  72 NW5       29.92F WCI  21
* CHINOOK      PTCLDY    12   9  88 CALM      29.92S
* MALTA APT    PTCLDY    18  12  77 N/A        N/A
* CHESTER      N/A       18  15  88 N/A        N/A
* DENTON       N/A       28  22  78 SW8        N/A   WCI  20
* JUDITH GAP   N/A       32  20  61 SW14       N/A   WCI  22
* LOMA         N/A       32  26  79 W7         N/A   WCI  25
$$

MTZ017>020-022>027-061-062-190900-
NORTHEAST MONTANA
CITY           SKY/WX    TMP DP  RH WIND       PRES   REMARKS
GLASGOW        PTCLDY    18  14  84 N5        29.91S WCI  11
GLENDIVE       MOCLDY    28  25  89 S6        29.92S WCI  21
JORDAN         CLEAR     28  25  89 W8        29.91S WCI  20
SIDNEY         MOCLDY    21  19  92 CALM      29.93S
WOLF POINT     MOCLDY    19  18  96 CALM      29.93S
* BEAVER HILL  N/A       33  25  72 S16        N/A   WCI  23
* CIRCLE       N/A       31  28  89 N/A        N/A
* LINDSAY DVD  N/A       35  27  73 W8         N/A   WCI  28
* NAVAJO       N/A       17  15  92 N/A        N/A
* PLENTYWOOD A PTCLDY    23  23 100 SW5       29.90R VSB M1/4 WCI  16
* POPLAR APT   MOCLDY    18  16  92 CALM      29.92S VSB 2
* SACO         N/A       16  14  92 N/A        N/A
$$

MTZ028>042-056>058-190900-
SOUTHCENTRAL AND SOUTHEAST MONTANA
CITY           SKY/WX    TMP DP  RH WIND       PRES   REMARKS
BAKER          MOCLDY    30  23  75 W12       29.93S WCI  20
BILLINGS       MOCLDY    32  19  59 SW21      29.96F WCI  20
LIVINGSTON     CLOUDY    37  21  52 SW23G28   29.94F WCI  26
MILES CITY     CLEAR     28  21  75 SW6       29.95S WCI  21
* FORSYTH APT  CLEAR     30  21  69 SW6       29.95F WCI  24
* LAUREL APT   PTCLDY    34  14  44 S11G18     N/A   WCI  26
* ROUNDUP APT  CLEAR     34  19  54 S8         N/A   WCI  27
* ALZADA       N/A       23  18  81 NW3        N/A
* HYSHAM       N/A       30  16  56 W4G11      N/A
* LAME DEER    N/A       36  16  44 W9         N/A   WCI  29
* REED POINT   N/A       22  19  88 NE2        N/A
* ROSCOE HILL  N/A       36   7  30 S7G16      N/A   WCI  30
$$

REGIONAL REPORTS...DAKOTAS
CITY           SKY/WX    TMP DP  RH WIND       PRES   REMARKS
WILLISTON      FOG       27  25  92 CALM      29.92S VSB M1/4
DICKINSON      MOCLDY    30  25  82 SW9       29.89F WCI  22
CROSBY         FOG       27  27 100 W6        29.92S WCI  20
TIOGA          FOG       27  27 100 SW5       29.93F VSB 1/2  WCI  21
WATFORD CITY   FOG       16  16 100 CALM      29.90S VSB M1/4
BISMARCK       PTCLDY    21  19  92 S6        29.98F WCI  13
GRAND FORKS    CLOUDY    21  18  88 S15       30.11F WCI   7
FARGO          FOG       21  18  88 S12       30.14F WCI   9
BUFFALO SD     PTCLDY    28  21  75 W10       29.88F WCI  19
RAPID CITY     PTCLDY    23  16  74 NW6       29.98F WCI  16
$$

REGIONAL REPORTS...WYOMING/IDAHO/WASHINGTON
CITY           SKY/WX    TMP DP  RH WIND       PRES   REMARKS
GILLETTE       CLEAR     28  14  56 W5        29.98F WCI  22
SHERIDAN       CLEAR     27  12  53 SE3       29.97F
CODY           PTCLDY    36  18  48 S15       29.99S WCI  27
YELLOWSTONE LA CLOUDY    23  19  85 CALM      30.06S
SALMON         CLOUDY    27  23  85 CALM      30.07F
MULLAN PASS    CLOUDY    30  27  89 VRB6      29.90S WCI  24
SAND POINT     N/A       34  34 100 CALM      29.96S VSB 2 1/2
SPOKANE        CLOUDY    39  36  89 SE7       29.90F WCI  34
$$

REGIONAL REPORTS...ALBERTA
CITY           SKY/WX    TMP DP  RH WIND       PRES   REMARKS
CALGARY        MOCLDY    23  18  81 SW5       29.76S WCI  16
LETHBRIDGE     CLEAR     28  23  81 SW14      29.82F WCI  17
MEDICINE HAT   CLEAR     21  19  92 S5        29.84F WCI  14
EDMONTON       N/A       10   7  88 S5        29.78F WCI   1
WATERTON GATE  N/A       37  25  62 SW22G31    N/A   WCI  26
CARDSTON       N/A       28  23  81 SW7        N/A   WCI  21
MILK RIVER     N/A       18  16  92 W1         N/A
$$

REGIONAL REPORTS...SASKATCHEWAN
CITY           SKY/WX    TMP DP  RH WIND       PRES   REMARKS
SWIFT CURRENT  FOG       18  18 100 W6        29.85S VSB 1/4  WCI  10
REGINA         FOG       23  23 100 W5        29.90S VSB M1/4 WCI  16
VAL MARIE      N/A       10   9  96 CALM       N/A
ASSINIBOIA     N/A       18  16  92 W5         N/A   WCI  11
CORONACH       N/A       12   9  88 NW1        N/A

$$




USA.gov is the U.S. government's official web portal to all federal, state and local government web resources and services.